Location: Colemans Mills
(43.1295°N, 75.3460°W)
Time: 11:30:11
(UTC+00:00)

Daily predictions for brighter satellites

Satellite Brightness Start Highest point End
(mag) Time Altitude Azimuth Time Altitude Azimuth Time Altitude Azimuth
SL-16 R/B 4.1 21:49:27 10° WSW 21:54:01 24° NW 21:58:37 10° N
Cosmos 1844 3.8 21:48:30 10° NNW 21:54:14 87° ENE 21:59:51 10° SSE
Meteor 1-14 Rocket 4.5 21:48:19 10° N 21:54:18 87° WSW 22:00:05 10° S
Cosmos 1733 Rocket 3.9 21:50:34 10° NNE 21:54:22 28° ENE 21:58:09 10° SE
Cosmos 1340 2.6 21:50:43 10° N 21:54:30 74° E 21:58:16 10° SSE
PSLV R/B 4.1 21:52:08 10° NNE 21:56:14 55° E 22:00:16 10° S
CZ-4 R/B 3.3 21:58:09 10° ENE 21:58:18 10° ENE 21:58:27 10° ENE
H-2A R/B 3.3 21:56:18 10° SE 21:59:40 33° ENE 22:03:02 10° N
ATLAS 5 CENTAUR R/B 2.7 21:57:42 10° S 21:59:56 19° SE 22:01:34 10° ENE
Cosmos 2219 Rocket 2.3 21:54:48 10° SSW 22:00:20 66° ESE 22:05:55 10° NNE
Feng Yun 1-1 Rocket 4.3 21:55:39 10° SE 22:00:51 51° ENE 22:06:03 10° N
SMAP 3.3 21:56:48 10° SE 22:01:14 46° ENE 22:05:42 10° N
USA 267 3.3 21:54:56 10° SE 22:01:30 86° NE 22:08:04 10° NW
Cosmos 1869 Rocket 3.9 21:57:10 10° NNW 22:01:35 75° W 22:06:01 10° S
NOSS 3-4 (A) 3.8 21:56:47 10° SW 22:02:45 67° NW 22:09:06 10° NNE
NOSS 3-4 (C) 3.8 21:56:53 10° SW 22:02:52 68° NW 22:09:13 10° NNE
CORIOLIS 4.5 21:58:14 10° SE 22:03:22 44° ENE 22:08:31 10° N
ATLAS 3B R/B 2.8 21:57:05 10° NW 22:03:50 88° SW 22:10:46 10° SSE
Lacrosse 5 rocket 1.9 22:00:31 10° SSW 22:04:41 47° SE 22:08:39 10° ENE
YAOGAN 6 4.3 22:04:01 10° E 22:05:42 13° ENE 22:07:24 10° NE
Radarsat Rocket 4.3 22:00:11 10° SSE 22:06:32 76° WSW 22:12:25 10° NNW
Cosmos 1269 Rocket 4.5 22:01:36 10° SSW 22:06:51 67° WNW 22:12:10 10° NNE
Cosmos 1844 Rocket 3.4 22:02:33 10° NNW 22:08:02 58° WSW 22:13:29 10° S
ALOS 3.8 22:04:30 10° SSW 22:08:54 41° W 22:13:19 10° NNW
Cosmos 1980 4.4 22:08:52 10° SSE 22:13:52 34° ESE 22:18:55 10° NE
SL-4 R/B 2.1 22:10:32 10° WSW 22:14:11 61° NNW 22:17:52 12° NE
Cosmos 304 Rocket 3.7 22:11:26 10° NNW 22:16:16 80° ENE 22:21:04 10° SSE
ERBS 2.3 22:14:22 10° NW 22:17:43 82° SW 22:21:03 10° SE
Helios 1A Rocket 4.5 22:14:06 10° S 22:17:59 40° W 22:21:53 10° NNW
Okean O Rocket 3.3 22:18:00 10° SSW 22:22:00 37° W 22:26:04 10° NNW
Cosmos 1782 4.4 22:18:52 10° SW 22:22:35 37° WNW 22:26:19 10° N
BREEZE-M DEB (TANK) 2.7 22:16:36 10° W 22:22:39 61° N 22:25:03 15° ENE
Cosmos 1302 Rocket 4.2 22:21:19 10° NNW 22:26:37 80° WSW 22:31:50 10° SSE
COSMOS 2428 2.8 22:21:07 10° SSW 22:26:47 80° WNW 22:32:31 10° NNE
Aureole 1 Rocket 4.2 22:26:00 10° SE 22:26:55 12° ESE 22:26:55 12° ESE
Cosmos 2242 Rocket 4.3 22:23:29 10° SSE 22:27:34 34° E 22:31:43 10° NNE
Cosmos 1315 Rocket 4.1 22:24:11 10° SSW 22:27:57 42° WNW 22:31:49 10° N
Cosmos 1862 Rocket 3.6 22:25:11 10° S 22:29:25 56° E 22:33:43 10° NNE
Cosmos 1346 Rocket 4.2 22:27:04 10° NNW 22:30:49 42° W 22:34:36 10° SSW
IRS-1C Rocket 4.2 22:25:59 10° SSE 22:31:15 82° WSW 22:36:34 10° NNW
Cosmos 2251 Rocket 3.6 22:26:46 10° S 22:31:59 59° ESE 22:37:11 10° NNE
Meteor 1-5 Rocket 4.1 22:26:35 10° N 22:32:11 79° E 22:37:34 10° SSE
Okean-O 2.7 22:30:37 10° SSE 22:34:56 56° ENE 22:39:17 10° N
NOSS 2 (A) 3.7 22:35:26 10° NNW 22:37:52 75° NE 22:40:12 10° SE
Cosmos 1666 3.5 22:34:47 10° NNE 22:37:59 26° ENE 22:41:12 10° SE
ATLAS 2AS CENTAUR R/B 4.1 22:33:29 10° WSW 22:40:53 40° NW 22:48:19 10° NNE
Shenzhou-11 Module 1.6 22:39:06 10° W 22:41:51 82° S 22:42:58 31° E
NOSS 0 Rocket 3.9 22:37:14 10° SSW 22:43:23 72° ESE 22:49:34 10° NNE
FengYun 1-2 T 4.4 22:39:18 10° SE 22:44:32 48° ENE 22:49:48 10° N
AQUARIUS 4.5 22:40:19 10° S 22:44:48 71° WSW 22:49:18 10° NNW
Cosmos 1092 Rocket 4.2 22:39:08 10° SSE 22:45:09 48° E 22:51:08 10° NNE
Exosat Rocket 3.5 22:39:49 10° SSW 22:45:23 86° ESE 22:50:23 10° NNE
STARLINK-46 3.5 22:42:54 10° WSW 22:45:28 38° NNW 22:46:32 25° NNE
Envisat 2.9 22:49:17 10° SSE 22:54:21 78° ENE 22:59:27 10° N
ISS -3.6 22:51:34 10° NW 22:54:52 52° NNE 22:55:48 38° E
STARLINK-60 3.8 22:56:20 10° SSW 22:59:27 36° SE 22:59:56 34° ESE
RESURS DK-1 3.6 22:57:24 10° SW 23:01:18 40° WNW 23:04:55 12° N
Cosmos 2278 Rocket 2.2 22:56:32 10° NNW 23:02:14 89° WSW 23:07:53 10° SSE
Cosmos 407 Rocket 4.3 23:00:12 10° SSE 23:04:32 28° E 23:04:42 28° E
Cosmos 1812 3.6 23:01:14 10° SSW 23:04:58 49° W 23:08:45 10° N
Cosmos 1908 Rocket 3.5 23:01:25 10° N 23:05:48 64° E 23:10:07 10° SSE
COSMO-SKYMED 1 2.4 23:03:48 15° NNE 23:07:22 71° E 23:11:42 10° S
USA 215 4.4 23:06:11 16° NE 23:10:25 33° NNW 23:16:05 10° WNW
Cosmos 1992 Rocket 4.0 23:06:50 10° NNW 23:12:05 83° WSW 23:17:18 10° SSE
SL-16 R/B 2.7 23:09:35 10° S 23:14:46 38° ESE 23:15:45 35° E
YAOGAN 1 2.6 23:10:48 10° SSE 23:15:00 54° ENE 23:19:15 10° N
Cosmos 2369 Rocket 4.2 23:13:48 10° N 23:14:33 12° NNE 23:14:33 12° NNE
Cosmos 2333 Rocket 3.8 23:13:37 10° WSW 23:18:43 32° NW 23:23:53 10° N
NOAA 15 4.5 23:13:51 10° SSE 23:19:04 67° ENE 23:24:17 10° N
USA 116 4.4 23:15:06 17° NNE 23:19:10 63° E 23:24:16 10° S
Cosmos 2237 Rocket 2.5 23:21:38 10° SW 23:27:17 67° WNW 23:31:23 19° NNE
BREEZE-M DEB (TANK) 2.0 23:23:56 10° WNW 23:27:30 63° WNW 23:27:30 63° WNW
Cosmos 1536 3.9 23:25:02 10° NNW 23:28:52 45° W 23:32:41 10° SSW
Cosmos 1900 4.2 23:25:12 10° NNW 23:30:06 87° WSW 23:33:19 22° SSE
Cosmos 1428 Rocket 4.3 23:25:32 10° S 23:31:37 68° E 23:37:40 11° NNE
Cosmos 1553 Rocket 4.2 23:25:38 10° N 23:31:47 49° ENE 23:37:57 10° SSE
Okean 1-7 2.8 23:27:50 10° S 23:32:08 81° E 23:33:00 56° NNE
CZ-4 R/B 1.5 23:28:51 10° S 23:32:46 71° WSW 23:36:40 10° NNW
FALCON 9 DEB 4.0 23:29:47 10° SW 23:32:21 42° SSW 23:32:21 42° SSW
YAOGAN 6 3.8 23:35:30 10° S 23:38:50 41° W 23:42:13 10° NNW
Lacrosse 5 rocket 2.7 23:40:13 10° W 23:43:58 30° NNW 23:44:24 29° NNW
Cosmos 2219 Rocket 4.3 23:40:32 10° W 23:44:48 22° NW 23:49:05 10° N
Cosmos 2026 Rocket 3.9 23:42:04 10° S 23:48:08 79° W 23:54:14 10° N
DMSP B5D1-3 4.3 23:48:43 75° ENE 23:48:58 77° ESE 23:54:04 10° S
Meteor 1-18 Rocket 4.1 23:45:31 10° S 23:51:16 77° E 23:52:18 60° NNE
SL-4 R/B 3.8 23:51:06 10° WNW 23:53:28 23° NNW 23:53:28 23° NNW
